Regional Weather Roundup
Issued by NWS

Home | Current Version | Previous Version | Text Only | Print | Product List | Glossary Off
Versions: 1 2 3 4 5 6 7 8 9 10 11 12 13 14 15 16 17 18 19 20 21 22 23 24 25 26 27 28 29 30 31 32 33 34 35 36 37 38 39 40 41 42 43 44 45 46 47 48 49 50

000
ASUS43 KDMX 010104
RWRIA

WEATHER ROUNDUP FOR IOWA
NATIONAL WEATHER SERVICE DES MOINES IA
  ISSUED BY NWS QUAD CITIES IA IL
700 PM CST SAT FEB 28 2015

NOTE: "FAIR" INDICATES FEW OR NO CLOUDS BELOW 12,000 FEET WITH NO
SIGNIFICANT WEATHER AND/OR OBSTRUCTIONS TO VISIBILITY.

* - THESE STATIONS ARE NOT NWS STATIONS...THUS NOT UNDER NWS
QUALITY CONTROL.  THEY ALSO DO NOT REPORT WEATHER SUCH
AS PRECIPITATION OR FOG.

IAZ001>003-012>014-020>022-031>034-043>046-010200-
   NORTHWEST IOWA

CITY           SKY/WX    TMP DP  RH WIND       PRES   REMARKS
CARROLL *      CLOUDY    18  12  79 S9        30.34S WCI   6
CHEROKEE *     CLOUDY    20  15  80 S10       30.31R WCI   9
DENNISON *     CLOUDY    19  16  86 S6        30.32R WCI  11
LE MARS *      CLEAR     21  14  73 S13       30.29R WCI   9
ORANGE CITY *  CLEAR     19  12  73 S9        30.26S WCI   9
SHELDON *      CLOUDY    16  12  86 S10       30.26S WCI   3
SIOUX CITY     CLEAR     22  14  71 S13       30.31R WCI  10
SPENCER        CLEAR     17  10  74 S12       30.29S WCI   4
STORM LAKE *   CLOUDY    19  14  79 S12       30.31S WCI   7
$$

IAZ055>058-069>071-079>083-090>094-010200-
   SOUTHWEST IOWA

CITY           SKY/WX    TMP DP  RH WIND       PRES   REMARKS
ATLANTIC *     CLOUDY    18  16  93 CALM      30.36R
AUDUBON *      PTCLDY    19  16  86 S5        30.34S WCI  13
CLARINDA *     CLOUDY    23  19  86 S5        30.39S WCI  17
COUNCIL BLFS * CLOUDY    21  19  93 S8        30.33R WCI  12
CRESTON *      CLOUDY    21  19  93 SE7       30.36R WCI  13
HARLAN *       CLOUDY    19  19 100 S6        30.38R WCI  11
LAMONI         CLOUDY    21  18  88 S3        30.38R
RED OAK *      MIX PCPN  23  19  86 S10       30.36S WCI  12
SHENANDOAH *   CLOUDY    21  18  86 S6        30.38S WCI  14
$$

IAZ047>049-059>061-072>074-084-010200-
   CENTRAL IOWA

CITY           SKY/WX    TMP DP  RH WIND       PRES   REMARKS
AMES           CLEAR     15  11  83 SE6       30.39S WCI   6
ANKENY *       CLOUDY    16  14  93 CALM      30.40S
BOONE *        CLOUDY    16  16 100 SE8       30.36R WCI   5
CHARITON *     CLOUDY    21  18  86 SE7       30.39R WCI  13
DES MOINES     FLURRIES  21  16  81 SE6       30.39S WCI  13
GRINNELL *     LGT SNOW  15  13  91 E8        30.41S WCI   4
KNOXVILLE *    CLOUDY    19  14  79 SE10      30.40R WCI   8
MARSHALLTOWN   CLOUDY    14  10  84 SE10      30.40S WCI   1
NEWTON *       CLOUDY    16  12  86 SE10      30.41R WCI   3
PELLA *        FLURRIES  18  16  95 SE6       30.43S WCI   9
PERRY *          N/A     18  15  90 S6        30.38R WCI  10
$$

IAZ004>006-015-016-023>025-035-036-010200-
   NORTH CENTRAL IOWA

CITY           SKY/WX    TMP DP  RH WIND       PRES   REMARKS
ALGONA *       CLOUDY    18  12  79 S14       30.34S WCI   4
CLARION *      CLEAR     12   9  85 SE17      30.36F WCI  -5
ESTHERVILLE    CLOUDY    18  12  77 S14       30.30S WCI   4
FORT DODGE *   PTCLDY    18  10  73 S6        30.36S WCI   9
MASON CITY     CLOUDY    12   5  73 SE10      30.39S WCI  -1
FOREST CITY *  FAIR      12   5  73 SE10      30.36S WCI  -1
WEBSTER CITY * PTCLDY    14  14 100 SE10      30.35S WCI   1
IOWA FALLS *   FLURRIES  12   8  84 SE6       30.39F WCI   3
$$

IAZ007>011-017>019-026>030-037>042-050>054-066-010200-
   NORTHEAST IOWA

CITY           SKY/WX    TMP DP  RH WIND       PRES   REMARKS
CEDAR RAPIDS   LGT SNOW  14  11  87 SE7       30.44F WCI   4
CHARLES CITY * CLOUDY    12   5  73 SE9       30.40F WCI   0
CLINTON *      CLOUDY    14  10  85 E8        30.52F WCI   3
DECORAH *      CLOUDY    12   1  62 SE7       30.41S WCI   2
DUBUQUE        LGT SNOW  13   4  67 SE10      30.45F WCI   0
MONTICELLO *   CLOUDY    14   9  79 SE8       30.46F HAZE    WCI   3
OELWEIN *      CLOUDY    10   1  67 SE12      30.43S WCI  -4
WATERLOO       LGT SNOW  13   7  77 SE7       30.43S WCI   3
$$

IAZ064-065-067-068-078-010200-
   EAST CENTRAL IOWA

CITY           SKY/WX    TMP DP  RH WIND       PRES   REMARKS
DAVENPORT      LGT SNOW  15   9  76 E8        30.49F WCI   4
IOWA CITY      LGT SNOW  16  12  84 SE7       30.48F FOG     WCI   6
MT. PLEASANT * LGT SNOW  17  15  89 SE6       30.46S WCI   9
MUSCATINE *    FLURRIES  19  14  79 SE6       30.49F WCI  11
QUAD CITIES    CLOUDY    17  10  74 E8        30.49F WCI   7
$$

IAZ062-063-075>077-085>089-095>099-010200-
   SOUTHEAST IOWA

CITY           SKY/WX    TMP DP  RH WIND       PRES   REMARKS
BURLINGTON     CLOUDY    19  16  88 SE6       30.46F FOG     WCI  11
FAIRFIELD *    FLURRIES  16  12  86 SE7       30.45S WCI   6
FORT MADISON * LGT SNOW  18  16  93 E5        30.46F WCI  11
KEOKUK *       LGT SNOW  19  18  93 E8        30.45F WCI   9
OSKALOOSA *    FLURRIES  15  12  90 SE8       30.44R WCI   4
CENTERVILLE *  FLURRIES  18  16  93 SE8       30.42R WCI   7
OTTUMWA        MOCLDY    15  12  88 E7        30.43S WCI   5
WASHINGTON *   CLOUDY    18  18 100 SE8       30.46S WCI   7
$$

ABBREVIATIONS USED IN REMARKS
   TC - TEMPERATURES IN CELSIUS
  WCI - WIND CHILL INDEX
   HX - HEAT INDEX
  VSB - VISIBILITY
$$



USA.gov is the U.S. government's official web portal to all federal, state and local government web resources and services.